Miscellaneous Local Product
Issued by NWS North Platte, NE

Home | Current Version | Previous Version | Text Only | Print | Product List | Glossary On
Versions: 1 2 3 4 5 6 7 8 9 10 11 12 13 14 15 16 17 18 19 20 21 22 23 24 25 26 27 28 29 30 31 32 33 34 35 36 37 38 39 40 41 42 43 44 45 46 47 48 49 50
972
AXUS43 KLBF 290610
MISLBF


WESTERN AND NORTH CENTRAL NEBRASKA HOURLY WEATHER ROUNDUP
NATIONAL WEATHER SERVICE NORTH PLATTE NE
100 AM CDT SUN MAY 29 2016

NOTE: "FAIR" INDICATES FEW OR NO CLOUDS BELOW 12,000 FEET WITH NO
SIGNIFICANT WEATHER AND/OR OBSTRUCTIONS TO VISIBILITY.

NOTE: STATIONS NOT REPORTING VARIABLES SUCH AS SKY/WEATHER OR
PRESSURE ARE PROVIDED BY RAWS AND APRS NETWORKS AND ARE NOT UNDER
NATIONAL WEATHER SERVICE QUALITY CONTROL.

...OBSERVATIONS IN AND NEAR THE EASTERN PANHANDLE OF NEBRASKA...

CITY           SKY/WX    TMP DP  RH WIND       PRES   REMARKS
PINE RIDGE     CLEAR     44  42  93 SE5       30.07R
CHADRON        CLEAR     44  42  93 SE5       30.07S
ALLIANCE       CLEAR     44  42  93 CALM      30.08R
SIDNEY         PTCLDY    48  46  93 CALM      30.11R
CRESCENT LAKE    N/A     51  47  88 CALM        N/A
BIG SPRINGS      N/A     56  51  84 SW3         N/A
$$

...OBSERVATIONS IN NORTHERN NEBRASKA AND FAR SOUTHERN SOUTH DAKOTA...

CITY           SKY/WX    TMP DP  RH WIND       PRES   REMARKS
WINNER         FAIR      59  55  87 SW3       29.98R
VALENTINE      CLOUDY    58  52  80 W6        30.03R
THEDFORD       CLOUDY    56  52  85 NE3       30.05F
AINSWORTH      CLOUDY    57  54  89 CALM      30.02S
O`NEILL        PTCLDY    57  56  95 SW7       30.02R
ORD            CLOUDY    57  55  93 SW7       30.02R
BROKEN BOW     MOCLDY    61  52  72 CALM      30.02F
BUTTE            N/A     58  55  90 S3          N/A
CHAMBERS         N/A     58  56  95 CALM        N/A
EWING            N/A     55  54  97 CALM        N/A
$$

...OBSERVATIONS IN SOUTHWEST NEBRASKA AND FAR NORTHEAST COLORADO...

CITY           SKY/WX    TMP DP  RH WIND       PRES   REMARKS
WRAY           FAIR      54  46  76 N8        30.08S
IMPERIAL       CLOUDY    56  51  84 S9        30.06R
OGALLALA       CLOUDY    51  48  90 NW3       30.08R
NORTH PLATTE   PTCLDY    54  51  90 CALM      30.04R
MCCOOK         CLOUDY    58  52  80 E5        30.07S
LEXINGTON      CLOUDY    56  52  85 S5        30.06S
PAXTON           N/A     56  51  82 CALM        N/A
STAPLETON        N/A     55  49  80 CALM        N/A
GOTHENBURG       N/A     62  48  60 N3          N/A
CALLAWAY         N/A     58  52  80 W17         N/A
$$

...OBSERVATIONS IN CENTRAL LINCOLN COUNTY AREA...

CITY           SKY/WX    TMP DP  RH WIND       PRES   REMARKS
N.P. AIRPORT   PTCLDY    54  51  90 CALM      30.04R
N.P. DOWNTOWN    N/A     55  53  93 CALM        N/A
N.P. SOUTHEAST   N/A     54  53  96 CALM        N/A
N.P. HILLCREST   N/A     57  51  81 CALM        N/A
$$

...SOME OBSERVATIONS FROM AROUND THE REGION...

CITY           SKY/WX    TMP DP  RH WIND       PRES   REMARKS
DENVER         PTCLDY    50  43  77 S8        30.14S
LARAMIE        CLOUDY    48  36  63 S10       30.21R
CHEYENNE       PTCLDY    52  39  61 SW12      30.16R
SCOTTSBLUFF    CLEAR     51  45  79 E7        30.09R
RAPID CITY     CLEAR     52  46  80 NW9       30.04R
BISMARCK       CLEAR     54  53  97 W5        29.95S
PIERRE         CLEAR     56  53  90 S3        29.96R
SIOUX FALLS    CLEAR     58  56  93 W3        29.94S
OMAHA          CLEAR     61  55  81 W5        29.99R
GRAND ISLAND   MOCLDY    64  56  75 W6G22     30.06R
KANSAS CITY    CLEAR     62  58  86 SW6       30.02R
WICHITA        CLEAR     67  58  72 CALM      30.04R
OKLAHOMA CITY  PTCLDY    70  67  90 S8        30.04R
DALLAS         CLOUDY    79  72  79 S7        30.03R
AMARILLO       CLEAR     61  49  64 SE12      30.08S
DODGE CITY     CLEAR     57  53  86 SE8       30.07R
HAYS           CLEAR     59  48  67 CALM      30.04S
GOODLAND       CLEAR     58  48  69 SW8       30.09S
$$




USA.gov is the U.S. government's official web portal to all federal, state and local government web resources and services.